World > North America > United States > New York > Speigletown

Hourly Speigletown, NY Regional Weather

Feedback E-mail the Weather

Quick WX

Speigletown, NY Weather Maps

°F °C°F °C
Speigletown Weather Map
UTC Time: 8/9/2022, 22:43
Your Time:

Speigletown, NY Regional Weather

Expires:202208092300;;756659
ASUS41 KALY 092210
RWRALY

NEW YORK STATE HOURLY WEATHER ROUNDUP
NATIONAL WEATHER SERVICE ALBANY NY
600 PM EDT TUE AUG 09 2022

NOTE: "FAIR" INDICATES FEW OR NO CLOUDS BELOW 12,000 FEET WITH NO
SIGNIFICANT WEATHER AND/OR NO OBSTRUCTIONS TO VISIBILITY.


NYZ032-033-038>043-046>054-057>066-NYZ062>081-082-084-092300-
EAST

  
CITY           SKY/WX    TMP DP  RH WIND       PRES   REMARKS
ALBANY         MOSUNNY   82  62  50 W13       29.94R                  
GLENS FALLS    PTSUNNY   71  63  75 NE10      29.95R                  
POUGHKEEPSIE   PTSUNNY   89  71  55 NW7       29.88S HX  95           
NEWBURGH       MOSUNNY   90  70  51 NW6       29.91R HX  95           
MONTGOMERY     CLOUDY    87  69  54 NW9       29.90S HX  91           
WHITE PLAINS   MOSUNNY   91  76  61 NW8       29.89S HX 103           
ISLIP          MOSUNNY   86  72  62 SW13      29.88S HX  92           
NEW YORK CITY  PTSUNNY   94  69  44 N8G16     29.85S HX  99           
CENTRAL PARK   PTSUNNY   94  70  45 VRB3      29.90R HX 100           
$$


SKY/WX - Weather  TMP - Temperature  DP - Dew Point  RH - Humidity
WIND - Wind Direction/Speed PRES - Barometric Pressure VSB - Visibility
WCI - Wind Chill Index E13G22 Wind - East Wind 13 mph/Gusts of 22 mph

Trending Headlines

Speigletown Radar Loop



Speigletown Quick Facts


National Two Day Weather Forecast


E-mail the Speigletown Weather Forecast

Voice your opinion or tell us about page issues...